User: anonymous   Login
Location: �bnet
(46.9957°N, 8.4908°E)
Time: 17:41:43
(UTC+00:00)
Language:

Cosmos 1242 Rocket - Orbit

View from above orbital plane
View from above orbital plane
View from above satellite
View from above satellite

Ground track
Ground track

The orbit data is extracted from the following two-line orbital elements,

1 12155U 81008B   21211.18204359  .00001479  00000-0  43881-4 0  9999
2 12155  81.1605  73.0539 0026620 228.2954 131.6007 15.33770197222762
Epoch (UTC): 30 July 2021 04:22:08
Eccentricity: 0.0026620
inclination: 81.1605°
perigee height: 446 km
apogee height: 483 km
right ascension of ascending node: 73.0539°
argument of perigee: 228.2954°
revolutions per day: 15.33770197
mean anomaly at epoch: 131.6007°
orbit number at epoch: 22276

The dashed part of the orbit path shows where the satellite is in the earth's shadow,  

DLR